Regional Weather Roundup
Issued by NWS

Home | Current Version | Previous Version | Text Only | Print | Product List | Glossary Off
Versions: 1 2 3 4 5 6 7 8 9 10 11 12 13 14 15 16 17 18 19 20 21 22 23 24 25 26 27 28 29 30 31 32 33 34 35 36 37 38 39 40 41 42 43 44 45 46 47 48 49

000
ASUS45 KCYS 042010
RWRWY

WYOMING REGIONAL WEATHER ROUNDUP
NATIONAL WEATHER SERVICE CHEYENNE WY
200 PM MDT MON MAY 04 2015

NOTE:  "FAIR" INDICATES FEW OR NO CLOUDS BELOW 12,000 FEET
WITH NO SIGNIFICANT WEATHER AND/OR OBSTRUCTIONS TO VISIBILITY.

WYZ001-042100-
YELLOWSTONE NATIONAL PARK

CITY           SKY/WX    TMP DP  RH WIND       PRES   REMARKS
LK YELLOWSTONE   N/A     52  34  50 VRB3      30.10F
W YELLOWSTONE  NOT AVBL

$$
WYZ002>013-054>058-071-098>099-042100-
NORTHERN WYOMING

CITY           SKY/WX    TMP DP  RH WIND       PRES   REMARKS
JACKSON        PTSUNNY   61  37  41 VRB5      30.03F
CODY           FAIR      66  37  34 CALM      29.96F
GREYBULL       FAIR      73  39  29 VRB6      29.93F
WORLAND        FAIR      69  42  37 VRB5      29.94F
SHERIDAN       FAIR      69  43  38 SE13G18   29.97F
BUFFALO        FAIR      65  43  44 SE10G16   30.03F
GILLETTE       FAIR      61  41  47 S30       30.07S
HULETT         CLOUDY    59  37  44 S17G24    30.10F
NEWCASTLE      FAIR      54  32  43 SE25G33   30.14F

$$
WYZ014>020-022>026-101>103-042100-
CENTRAL WYOMING

CITY           SKY/WX    TMP DP  RH WIND       PRES   REMARKS
BIG PINEY      FAIR      59  33  37 CALM      30.06F
PINEDALE       MOCLDY    57  32  38 CALM      30.06F
DUBOIS         MOCLDY    55  32  41 N15G23    30.05S
LANDER         FAIR      64  44  48 VRB3      29.99F
RIVERTON       FAIR      64  41  42 E7        30.01F
CASPER         FAIR      64  41  42 VRB6      30.01F
DOUGLAS        FAIR      58  43  57 SE20G28   30.07F

$$
WYZ021-027>030-104>119-042100-
SOUTHERN WYOMING

CITY           SKY/WX    TMP DP  RH WIND       PRES   REMARKS
EVANSTON       LGT RAIN  57  38  48 NE9       30.04F
KEMMERER       FAIR      59  37  44 E9        30.06F
FORT BRIDGER   CLOUDY    59  38  45 E10       30.08F
ROCK SPRINGS   FAIR      64  33  31 NE6       30.03F
DIXON          FAIR      66  36  33 SE3       30.04F THUNDER
RAWLINS        FAIR      60  34  37 E3        30.06F
SARATOGA       MOCLDY    61  34  36 NW7       30.06F
LARAMIE        PTSUNNY   51  41  68 SE26G33   30.09F
CHEYENNE       LGT RAIN  52  43  71 S8        30.13F
TORRINGTON     CLOUDY    55  37  50 E13       30.12F
PINE BLUFFS    MOCLDY    52  43  71 E9        30.14F

$$


USA.gov is the U.S. government's official web portal to all federal, state and local government web resources and services.